Airfield :
LOGIN :

Register | Disclaimer

   EN    FR    IT 

 










Legend :    VFR   Marginal VFR   IFR   Intensive IFR   Very Intensive IFR
Visi :
Ceiling :
>= 8 km
>= 3000ft
5 to 8 km
1000 to 3000 ft
1500m to 5 km
500 to 1000 ft
800 to 1500m
200 to 500 ft
< 800m
< 200 ft
Symbols :   Thunderstorms  Fog  Heavy snow  Heavy precipitations  Wind > 20 kt
SIGMETs :     Misc.  Thunderstorms  Icing  Turbulence  Mountain Waves  Volcanic Ashes






- Airport Elevation : 15 ft
- IATA code : BHD


EGAC - George Best Belfast City

CURRENT METAR :
  • 282220Z AUTO 17009KT 9999 FEW031/// SCT048/// 07/04 Q0999

EXPIRED METARs :
  • 282150Z AUTO 21010KT 9999 NCD 07/04 Q0999
  • 282120Z AUTO 22013KT 9999 FEW039/// 07/04 Q0998
  • 282050Z AUTO 22015KT 9999 NCD 07/04 Q0997
  • 282020Z AUTO 21013KT 9999 FEW036/// 07/04 Q0997
  • 281950Z AUTO 21012KT 9999 SCT042/// 07/04 Q0996

Expired Forecast.
ATIS : +44 02890 935 124



MET'MAP, your aeronautical weather chart ! - Copyright ORBIFLY December 2007 - Disclaimer

ORBIFLY MET'MAP TEAM :

Programming & Development : Alexandra Zaïnal
Concept & original design : Baudouin d'Aumeries
Assistance for programming : Marc-Olivier Méhu
Technical & hardware support : Manuel Goepfert

Contact : metmap@orbifly.com




SOURCES & CREDITS :

   NOAA